Key statistics
Satellite CZ-6A DEB at a glance.
Uptime
340
Days in orbit
Revolutions
≈ 15.1
Per day
Orbit
LEO
Low Earth Orbit
Inclination
89.2
Latest
Satellite identification and parameters
Extended collection of information and parameters for CZ-6A DEB.
Object identification
Identified? True
Debris? True
Object name: CZ-6A DEB
International designator: 2024-140ABM
Object number (NORAD): 61797
Object ID (CCSDS): 61797
Country: PEOPLES REPUBLIC OF CHINA (PRC)
Current information (Y/N): Y
RCS size: SMALL
Orbital parameters
Decay date: July 12, 2025
Period: 95.342 minutes
Inclination: 89.1572 deg
SMA: 6913.249 km
Apoapsis: 575.058 km
Periapsis: 495.17 km
RAAN: 325.258 deg
Eccentricy: 0.0057779
Argument of periapsis: 251.6888 deg
Mean anomaly: 107.8061 deg
Mean motion: 15.1035639 rev/day
Mean motion (dot): 0.00212034 rev/day2
B* drag term: 0.01211 1/REarth
Two-line elements (TLE)
Creation date: May 6, 2025, 3:54 a.m.
Reference frame: TEME
Reference center: EARTH
Epoch: April 16, 2025, 8:03 a.m. UTC
TLE line 0: 0 CZ-6A DEB
TLE line 1: 1 61797U 24140ABM 25106.33559159 .00212034 00000-0 12110-1 0 9993
TLE line 2: 2 61797 89.1572 325.2580 0057779 251.6888 107.8061 15.10356390 34140
Live tracking on map
Satellite CZ-6A DEB has decayed and is no longer in orbit. No tracking available.
In-orbit conjunctions
Satellite CZ-6A DEB has decayed and is no longer in orbit. No conjunctions available.
Associated space launch
18 Low Earth Orbit communication satellites with Ku, Q and V band payloads for the G60 constellation operated by Shanghai Spacecom Satellite Technology (SSST) with funding backed by the Shanghai local government. Initial constellation will consist of 1296 satellites by 2027 with long term plans to expand it to 12000 satellites.
CZ-6A DEB was lifted into orbit during the mission ‘Long March 6A | G60 Polar Group 01’, on board a Long March 6A space rocket.
The launch took place on Aug. 6, 2024, 6:42 a.m. from Launch Complex 9A.
For more information about the launch, click the button.
Long March 6A | G60 Polar Group 01
Agency: N/A
Status: Launch Successful
Launch date: Aug. 6, 2024, 6:42 a.m. UTC
Rocket: Long March 6A
Launch pad: Launch Complex 9A
Location: Taiyuan Satellite Launch Center, People's Republic of China
...
Latest news about this satellite
Brightness of first Chinese broadband constellation satellites alarms astronomers
The first satellites of a Chinese broadband constellation are significantly brighter than those of Western systems, posing a new challenge for astronomers.
Chinese rocket stage breaks up into cloud of more than 700 pieces of space debris
HELSINKI — A Chinese Long March 6A rocket’s upper stage has fragmented into a cloud of over 700 pieces of space debris, adding to concerns about long-term orbital safety. China […]
China's Thousand Sails Megaconstellation Kicks Off with Dangerous Debris Field
China's Thousand Sails Megaconstellation Kicks Off with Dangerous Debris Field
Newsletter sign-up
Weekly statistics, charts and insights to help you stay on top of the space industry.
